• In Latvia
  • List of Countries
  • For 7 days
  • Water Temperature
  • Satellite Maps
  • Weather Map
  • Weather Widgets
  • user-avatar
    Login

    Hourly Weather Porto Velho

    Today, 21 October, Saturday

    Time Temperature Precipitation Wind Pressure Humidity
    00:00 +24°C° 0 mm 0 mps 749 mmHg 83%
    01:00 +24°C° 0 mm 0 mps 749 mmHg 83%
    02:00 +24°C° 0 mm 0 mps 749 mmHg 83%
    03:00 +24°C° 0.1 mm 0 mps 749 mmHg 83%
    04:00 +24°C° 0.1 mm 0 mps 749 mmHg 83%
    05:00 +24°C° 0.1 mm 0 mps 749 mmHg 83%
    06:00 +26°C° 0.1 mm 0 mps 750 mmHg 78%
    07:00 +27°C° 0.1 mm 0 mps 750 mmHg 74%
    08:00 +29°C° 0.1 mm 0 mps 751 mmHg 69%
    09:00 +33°C° 0.3 mm 1 mps 751 mmHg 60%
    10:00 +35°C° 0.3 mm 1 mps 751 mmHg 52%
    11:00 +38°C° 0.3 mm 2 mps 751 mmHg 43%
    12:00 +38°C° 0 mm 2 mps 750 mmHg 42%
    13:00 +37°C° 0 mm 1 mps 749 mmHg 41%
    14:00 +37°C° 0 mm 1 mps 749 mmHg 40%
    15:00 +36°C° 0 mm 1 mps 748 mmHg 43%
    16:00 +34°C° 0 mm 0 mps 748 mmHg 46%
    17:00 +33°C° 0 mm 0 mps 748 mmHg 48%
    18:00 +31°C° 0 mm 0 mps 748 mmHg 52%
    19:00 +30°C° 0 mm 0 mps 749 mmHg 56%
    20:00 +29°C° 0 mm 0 mps 749 mmHg 60%
    21:00 +28°C° 0 mm 0 mps 750 mmHg 62%
    22:00 +27°C° 0 mm 0 mps 750 mmHg 64%
    23:00 +27°C° 0 mm 0 mps 750 mmHg 67%

    Tomorrow, 22 October, Sunday

    Time Temperature Precipitation Wind Pressure Humidity
    00:00 +26°C° 0.1 mm 0 mps 750 mmHg 69%
    01:00 +26°C° 0.1 mm 0 mps 749 mmHg 72%
    02:00 +25°C° 0.1 mm 0 mps 749 mmHg 75%
    03:00 +24°C° 0.8 mm 0 mps 749 mmHg 80%
    04:00 +24°C° 0.8 mm 0 mps 749 mmHg 86%
    05:00 +23°C° 0.8 mm 0 mps 750 mmHg 92%
    06:00 +24°C° 1.4 mm 0 mps 750 mmHg 91%
    07:00 +24°C° 1.4 mm 0 mps 751 mmHg 91%
    08:00 +25°C° 1.4 mm 0 mps 752 mmHg 90%
    09:00 +25°C° 2.9 mm 0 mps 752 mmHg 92%
    10:00 +27°C° 2.9 mm 1 mps 752 mmHg 94%
    11:00 +27°C° 2.9 mm 1 mps 752 mmHg 95%
    12:00 +27°C° 1.4 mm 1 mps 752 mmHg 94%
    13:00 +27°C° 1.4 mm 1 mps 751 mmHg 93%
    14:00 +27°C° 1.4 mm 1 mps 750 mmHg 93%
    15:00 +26°C° 0.1 mm 0 mps 749 mmHg 90%
    16:00 +26°C° 0.1 mm 0 mps 749 mmHg 88%
    17:00 +26°C° 0.1 mm 0 mps 748 mmHg 86%
    18:00 +26°C° 0 mm 0 mps 748 mmHg 88%
    19:00 +25°C° 0 mm 0 mps 749 mmHg 90%
    20:00 +26°C° 0 mm 1 mps 750 mmHg 93%
    21:00 +26°C° 0.1 mm 1 mps 750 mmHg 93%
    22:00 +26°C° 0.1 mm 1 mps 750 mmHg 94%
    23:00 +25°C° 0.1 mm 1 mps 751 mmHg 94%

    Day after tomorrow, 23 October, Monday

    Time Temperature Precipitation Wind Pressure Humidity
    00:00 +25°C° 0.3 mm 1 mps 750 mmHg 95%
    01:00 +25°C° 0.3 mm 1 mps 749 mmHg 95%
    02:00 +25°C° 0.3 mm 1 mps 749 mmHg 95%
    03:00 +24°C° 1 mm 1 mps 749 mmHg 96%
    04:00 +24°C° 1 mm 1 mps 749 mmHg 97%
    05:00 +22°C° 1 mm 0 mps 749 mmHg 98%
    06:00 +23°C° 0.9 mm 0 mps 750 mmHg 97%
    07:00 +25°C° 0.9 mm 1 mps 751 mmHg 96%
    08:00 +26°C° 0.9 mm 1 mps 751 mmHg 95%
    09:00 +26°C° 0.8 mm 1 mps 752 mmHg 95%
    10:00 +26°C° 0.8 mm 1 mps 752 mmHg 95%
    11:00 +26°C° 0.8 mm 1 mps 752 mmHg 95%
    12:00 +26°C° 2.1 mm 1 mps 752 mmHg 95%
    13:00 +26°C° 2.1 mm 1 mps 751 mmHg 96%
    14:00 +25°C° 2.1 mm 1 mps 750 mmHg 96%
    15:00 +25°C° 0.8 mm 1 mps 750 mmHg 96%
    16:00 +25°C° 0.8 mm 1 mps 750 mmHg 96%
    17:00 +23°C° 0.8 mm 0 mps 749 mmHg 97%
    18:00 +23°C° 0.2 mm 0 mps 750 mmHg 97%
    19:00 +23°C° 0.2 mm 0 mps 750 mmHg 98%
    20:00 +23°C° 0.2 mm 0 mps 751 mmHg 98%
    21:00 +22°C° 0 mm 0 mps 751 mmHg 98%
    22:00 +22°C° 0 mm 0 mps 751 mmHg 98%
    23:00 +22°C° 0 mm 0 mps 751 mmHg 98%

    24 October, Tuesday

    Time Temperature Precipitation Wind Pressure Humidity
    00:00 +22°C° 0 mm 0 mps 750 mmHg 98%
    01:00 +22°C° 0 mm 0 mps 750 mmHg 98%
    02:00 +24°C° 0 mm 1 mps 749 mmHg 98%
    03:00 +22°C° 0 mm 0 mps 749 mmHg 98%
    04:00 +21°C° 0 mm 0 mps 749 mmHg 98%
    05:00 +21°C° 0 mm 0 mps 749 mmHg 98%
    06:00 +22°C° 0 mm 0 mps 750 mmHg 96%
    07:00 +23°C° 0 mm 0 mps 751 mmHg 94%
    08:00 +23°C° 0 mm 0 mps 752 mmHg 92%
    09:00 +26°C° 0 mm 0 mps 752 mmHg 81%
    10:00 +28°C° 0 mm 0 mps 752 mmHg 69%
    11:00 +32°C° 0 mm 1 mps 751 mmHg 58%
    12:00 +32°C° 0.4 mm 1 mps 751 mmHg 60%
    13:00 +32°C° 0.4 mm 1 mps 750 mmHg 63%
    14:00 +29°C° 0.4 mm 0 mps 749 mmHg 65%
    15:00 +30°C° 0.7 mm 1 mps 749 mmHg 71%
    16:00 +29°C° 0.7 mm 1 mps 748 mmHg 76%
    17:00 +28°C° 0.7 mm 1 mps 748 mmHg 81%
    18:00 +26°C° 0.1 mm 0 mps 748 mmHg 83%
    19:00 +25°C° 0.1 mm 0 mps 749 mmHg 85%
    20:00 +24°C° 0.1 mm 0 mps 749 mmHg 87%
    21:00 +23°C° 0 mm 0 mps 749 mmHg 87%
    22:00 +23°C° 0 mm 0 mps 749 mmHg 88%
    23:00 +23°C° 0 mm 0 mps 750 mmHg 88%

    25 October, Wednesday

    Time Temperature Precipitation Wind Pressure Humidity
    00:00 +22°C° 0 mm 0 mps 749 mmHg 89%
    01:00 +22°C° 0 mm 0 mps 749 mmHg 90%
    02:00 +22°C° 0 mm 0 mps 749 mmHg 90%
    03:00 +22°C° 0 mm 0 mps 749 mmHg 91%
    04:00 +22°C° 0 mm 0 mps 749 mmHg 92%
    05:00 +21°C° 0 mm 0 mps 749 mmHg 93%
    06:00 +23°C° 0 mm 0 mps 750 mmHg 86%
    07:00 +25°C° 0 mm 0 mps 751 mmHg 78%
    08:00 +27°C° 0 mm 0 mps 751 mmHg 70%
    09:00 +28°C° 0 mm 0 mps 751 mmHg 67%
    10:00 +29°C° 0 mm 0 mps 751 mmHg 63%
    11:00 +32°C° 0 mm 1 mps 751 mmHg 60%
    12:00 +33°C° 0 mm 0 mps 750 mmHg 52%
    13:00 +35°C° 0 mm 0 mps 749 mmHg 43%
    14:00 +37°C° 0 mm 0 mps 748 mmHg 35%
    15:00 +36°C° 0 mm 0 mps 748 mmHg 39%
    16:00 +34°C° 0 mm 0 mps 747 mmHg 43%
    17:00 +33°C° 0 mm 0 mps 747 mmHg 48%
    18:00 +31°C° 0 mm 0 mps 747 mmHg 52%
    19:00 +29°C° 0 mm 0 mps 748 mmHg 57%
    20:00 +27°C° 0 mm 0 mps 748 mmHg 61%
    21:00 +27°C° 0 mm 0 mps 748 mmHg 62%
    22:00 +26°C° 0 mm 0 mps 749 mmHg 64%
    23:00 +26°C° 0 mm 0 mps 749 mmHg 65%

    26 October, Thursday

    Time Temperature Precipitation Wind Pressure Humidity
    00:00 +26°C° 0 mm 0 mps 748 mmHg 67%
    01:00 +25°C° 0 mm 0 mps 748 mmHg 69%
    02:00 +25°C° 0 mm 0 mps 748 mmHg 71%
    03:00 +24°C° 0 mm 0 mps 748 mmHg 73%
    04:00 +24°C° 0 mm 0 mps 748 mmHg 76%
    05:00 +23°C° 0 mm 0 mps 749 mmHg 79%
    06:00 +25°C° 0 mm 0 mps 749 mmHg 73%
    07:00 +29°C° 0 mm 1 mps 750 mmHg 66%
    08:00 +30°C° 0 mm 1 mps 750 mmHg 60%
    09:00 +33°C° 0 mm 1 mps 750 mmHg 53%
    10:00 +35°C° 0 mm 1 mps 750 mmHg 46%
    11:00 +38°C° 0 mm 2 mps 750 mmHg 39%
    12:00 +39°C° 0 mm 1 mps 749 mmHg 38%
    13:00 +39°C° 0 mm 1 mps 748 mmHg 38%
    14:00 +39°C° 0 mm 1 mps 747 mmHg 37%
    15:00 +37°C° 0 mm 1 mps 747 mmHg 40%
    16:00 +35°C° 0 mm 0 mps 747 mmHg 43%
    17:00 +34°C° 0 mm 0 mps 746 mmHg 45%
    18:00 +34°C° 0 mm 1 mps 747 mmHg 52%
    19:00 +32°C° 0 mm 1 mps 748 mmHg 60%
    20:00 +30°C° 0 mm 2 mps 748 mmHg 67%
    21:00 +29°C° 0.2 mm 1 mps 749 mmHg 73%
    22:00 +28°C° 0.2 mm 1 mps 749 mmHg 78%
    23:00 +26°C° 0.2 mm 0 mps 750 mmHg 84%
    Show more